Weather Roundup
Issued by NWS

Home | Current Version | Previous Version | Graphics & Text | Print | Product List | Glossary Off
Versions: 1 2 3 4 5 6 7 8 9 10 11 12 13 14 15 16 17 18 19 20 21 22 23 24 25 26 27 28 29 30 31 32 33 34 35 36 37 38 39 40 41 42 43 44 45 46 47 48 49 50

000
NZUS93 KARX 170859
HRRWXR

CURRENT HOURLY OBSERVATIONS ACROSS
MUCH OF THE UPPER MISSISSIPPI VALLEY
NATIONAL WEATHER SERVICE LA CROSSE WI
300 AM CST WED DEC 17 2014


...SOUTHEAST MINNESOTA...


CITY           SKY/WX    TMP DP  RH WIND       PRES   REMARKS
ROCHESTER      CLOUDY    16  13  88 NW12      30.23R WCI   3
ROCHESTER/MAYO CLOUDY    17  13  85 W10G16    30.24S WCI   4
WINONA         CLOUDY    23  18  80 NW7       30.25F WCI  15
AUSTIN         FLURRIES  12  10  92 NW9       30.26R WCI   0
ALBERT LEA     CLEAR     10   9  92 NW5       30.27R WCI   2
DODGE CENTER   LGT SNOW  14  12  92 CALM      30.23S
PRESTON        CLOUDY    17  14  88 NW9       30.23S WCI   5
OWATONNA       CLOUDY    12   9  85 NW9       30.26S WCI   0
FARIBAULT      MOCLDY    10   9  92 W5        30.27S WCI   2
$$

...ELSEWHERE IN MINNESOTA...


CITY           SKY/WX    TMP DP  RH WIND       PRES   REMARKS
MINNEAPOLIS    PTCLDY    11   7  84 NW9       30.28R WCI  -2
INTNL FALLS    CLOUDY    12   7  80 N9        30.26R WCI   0
DULUTH         LGT SNOW  13   7  77 NW7       30.17R WCI   3
RED WING       CLOUDY    19  12  73 NW7       30.25S WCI  10
REDWOOD FALLS  CLEAR      8   5  87 NW8       30.33R WCI  -4
MANKATO        CLEAR     10   3  72 W7        30.29S WCI   0
WORTHINGTON    PTCLDY     9   3  78 NW8       30.30S WCI  -4
FAIRMONT       CLOUDY    12   7  79 NW16      30.30R WCI  -4
$$

...SOUTHWEST WISCONSIN...


CITY           SKY/WX    TMP DP  RH WIND       PRES   REMARKS
LA CROSSE      CLOUDY    23  15  71 NW10      30.24R WCI  12
PRAIRIE DU CHI CLOUDY    23  15  71 NW9       30.26R WCI  13
BOSCOBEL       CLOUDY    24  16  71 W8        30.24R WCI  15
LONE ROCK      CLOUDY    28  16  59 W12       30.21R WCI  18
PLATTEVILLE    CLOUDY    24  18  78 CALM      30.22R
FORT MC COY    CLOUDY    22  15  75 NW12      30.22S WCI  11
VIROQUA        CLOUDY    21  19  92 NW9       30.18S WCI  11
WIS DELLS      NOT AVBL
$$

...ELSEWHERE IN WISCONSIN...


CITY           SKY/WX    TMP DP  RH WIND       PRES   REMARKS
MILWAUKEE      CLOUDY    28  18  66 NW16G24   30.13S WCI  16
MADISON        CLOUDY    24  16  71 W9        30.17R WCI  14
GREEN BAY      PTCLDY    25  19  78 W10       30.10S WCI  15
EAU CLAIRE     CLOUDY    20  13  74 NW9       30.21R WCI   9
BLACK RVR FLS  CLOUDY    22  15  74 NW8G17    30.21R WCI  13
MEDFORD        FLURRIES  19  14  84 NW8       30.12R WCI   8
WAUSAU         CLOUDY    21  15  78 NW13      30.11R WCI   9
WIS RAPIDS     CLOUDY    23  15  71 NW14      30.16R WCI  11
MARSHFIELD     CLOUDY    21  15  78 NW17      30.14R WCI   7
RICE LAKE      FLURRIES  19  13  79 W8        30.22R WCI   8
$$

...NORTHEAST IOWA...


CITY           SKY/WX    TMP DP  RH WIND       PRES   REMARKS
DECORAH        CLOUDY    19  16  86 NW10      30.22S WCI   8
MASON CITY     PTCLDY    11   8  88 NW13      30.30R WCI  -4
CHARLES CITY   FLURRIES  16  14  93 W10       30.28R WCI   3
OELWEIN        CLOUDY    19  16  86 NW13      30.27R WCI   7
$$

...ELSEWHERE IN IOWA...


CITY           SKY/WX    TMP DP  RH WIND       PRES   REMARKS
DES MOINES     FLURRIES  19  11  70 NW8       30.35R WCI   9
IOWA CITY      CLOUDY    20  13  74 NW12      30.32R WCI   8
FORT DODGE     CLEAR     12   7  79 NW5       30.33R WCI   4
$$

...NORTHERN ILLINOIS...


CITY           SKY/WX    TMP DP  RH WIND       PRES   REMARKS
CHICAGO-OHARE  CLOUDY    27  21  78 W14       30.16R WCI  16
CHICAGO-MIDWAY CLOUDY    29  21  72 NW15      30.18R WCI  18
MOLINE         CLOUDY    22  15  75 NW10      30.28R WCI  11
ROCKFORD       FLURRIES  25  18  74 NW15      30.22R WCI  13
PEORIA         CLOUDY    22  15  75 NW9       30.29R WCI  12
$$

NOTE: "FAIR" INDICATES FEW OR NO CLOUDS BELOW 12,000 FEET WITH NO
SIGNIFICANT WEATHER AND/OR OBSTRUCTIONS TO VISIBILITY. WIND
SPEEDS ARE IN MILES-PER-HOUR.



USA.gov is the U.S. government's official web portal to all federal, state and local government web resources and services.